Regional Weather Roundup
Issued by NWS Little Rock, AR

Home | Current Version | Previous Version | Graphics & Text | Print | Product List | Glossary On
Versions: 1 2 3 4 5 6 7 8 9 10 11 12 13 14 15 16 17 18 19 20 21 22 23 24 25 26 27 28 29 30 31 32 33 34 35 36 37 38 39 40 41 42 43 44 45 46 47 48 49 50
000
ASUS44 KLZK 182005
RWRLZK

WEATHER ROUNDUP FOR ARKANSAS
NATIONAL WEATHER SERVICE LITTLE ROCK AR
300 PM CDT SAT APR 18 2015

NOTE: "FAIR" INDICATES FEW OR NO CLOUDS BELOW 12,000 FEET WITH NO
SIGNIFICANT WEATHER AND/OR OBSTRUCTIONS TO VISIBILITY.

ARZ001-003-010-029-182100-
NORTHWEST ARKANSAS

CITY           SKY/WX    TMP DP  RH WIND       PRES   REMARKS
FAYETTEVILLE   PTSUNNY   66  62  87 NE6       29.90F
FORT SMITH     PTSUNNY   71  62  73 SE6       29.87F
HARRISON       LGT RAIN  67  59  75 NW7       29.92F
BENTONVILLE    MOSUNNY   66  57  72 E10       29.91F
ROGERS         CLOUDY    66  58  75 E8        29.91F
SILOAM SPGS    CLOUDY    70  57  64 SE14      29.90F
HIGHFILL       CLOUDY    67  59  75 E8        29.90F
SPRINGDALE     CLOUDY    64  59  82 E9        29.92F
$$

ARZ004-005-016-182100-
NORTH CENTRAL ARKANSAS

CITY           SKY/WX    TMP DP  RH WIND       PRES   REMARKS
BATESVILLE     CLOUDY    73  61  64 SE7       29.90F
FLIPPIN        CLOUDY    72 N/A N/A E5        29.89F
MTN HOME       CLOUDY    71  61  70 E8        29.91F
$$

ARZ040-041-182100-
WEST CENTRAL ARKANSAS

CITY           SKY/WX    TMP DP  RH WIND       PRES   REMARKS
MENA           PTSUNNY   72  64  78 E7        29.87F
MOUNT IDA      CLOUDY    73  62  68 SE7       29.84F
$$

ARZ009-017-025-026-028-182100-
NORTHEAST ARKANSAS

CITY           SKY/WX    TMP DP  RH WIND       PRES   REMARKS
CORNING        LGT RAIN  77  63  61 SE7       29.91F
JONESBORO      CLOUDY    74  63  68 SE9       29.90F
NEWPORT        CLOUDY    75  64  68 E6        29.91F
WALNUT RIDGE   CLOUDY    73  61  64 SE7       29.90F
BLYTHEVILLE    CLOUDY    76  63  64 SE7       29.90F
$$

ARZ022-023-033-042-044-182100-
CENTRAL ARKANSAS

CITY           SKY/WX    TMP DP  RH WIND       PRES   REMARKS
LITTLE ROCK    CLOUDY    72  60  66 E8        29.88F
N LITTLE ROCK  CLOUDY    72  64  74 E8        29.88F
JACKSONVILLE   PTSUNNY   72  63  72 NE8       29.88F
SEARCY         PTSUNNY   73  63  70 CALM      29.91F
HOT SPRINGS    LGT RAIN  67  63  87 NE6       29.87F
RUSSELLVILLE   CLOUDY    73  61  65 E7        29.87F
CLINTON        CLOUDY    72  63  73 CALM      29.91F
$$

ARZ036-182100-
EAST ARKANSAS

CITY           SKY/WX    TMP DP  RH WIND       PRES   REMARKS
WEST MEMPHIS   PTSUNNY   72  64  76 S9        29.89F
$$

ARZ050-053-066-070-073-182100-
SOUTHWEST ARKANSAS

CITY           SKY/WX    TMP DP  RH WIND       PRES   REMARKS
ARKADELPHIA    MOCLDY    73  67  81 E7        29.86F
CAMDEN         LGT RAIN  66  64  94 CALM      29.86F
TEXARKANA      CLOUDY    69  65  86 NE8       29.85F
EL DORADO      CLOUDY    69  65  86 NE9       29.84F
DE QUEEN       CLOUDY    73  64  73 E8        29.83F
$$

ARZ056-057-069-182100-
SOUTHEAST ARKANSAS

CITY           SKY/WX    TMP DP  RH WIND       PRES   REMARKS
PINE BLUFF     RAIN      68  63  84 SE7       29.88F
STUTTGART      PTSUNNY   73  61  64 E6        29.88F
MONTICELLO     RAIN      66  65  96 NE6       29.86F FOG

$$




USA.gov is the U.S. government's official web portal to all federal, state and local government web resources and services.